Regional Weather Roundup
Issued by NWS

Home | Current Version | Previous Version | Graphics & Text | Print | Product List | Glossary On
Versions: 1 2 3 4 5 6 7 8 9 10 11 12 13 14 15 16 17 18 19 20 21 22 23 24 25 26 27 28 29 30 31 32 33 34 35 36 37 38 39 40 41 42 43 44 45 46 47 48 49 50
000
ASUS43 KLOT 300412
RWRIL

ILLINOIS REGIONAL WEATHER ROUNDUP
NATIONAL WEATHER SERVICE CHICAGO/ROMEOVILLE IL
1100 PM CDT MON JUN 29 2015

NOTE: "FAIR" INDICATES FEW OR NO CLOUDS BELOW 12,000 FEET WITH NO
SIGNIFICANT WEATHER AND/OR OBSTRUCTIONS TO VISIBILITY.

* THESE STATIONS ARE NOT UNDER NWS QUALITY CONTROL. THEY ALSO MAY NOT
  REPORT WEATHER SUCH AS PRECIPITATION OR FOG.

ILZ001-002-007-009-015-016-024-300500-
NORTHWEST ILLINOIS

CITY           SKY/WX    TMP DP  RH WIND       PRES   REMARKS
MOLINE         CLOUDY    69  63  81 SE5       29.85R
STERLING*      CLOUDY    70  64  83 N14G29    29.85R
SAVANNA*       LGT RAIN  65  61  88 CALM      29.81F
$$

ILZ003-004-008-010-011-017-018-300500-
NORTH CENTRAL ILLINOIS

CITY           SKY/WX    TMP DP  RH WIND       PRES   REMARKS
ROCKFORD       MOCLDY    68  62  81 N6        29.81S
FREEPORT*      CLOUDY    61  59  94 W8        29.83F
ROCHELLE*      MOCLDY    65  64  97 CALM      29.81S
DE KALB*       PTCLDY    62  61  97 S5        29.81F FOG
PERU*          PTCLDY    66  64  95 CALM      29.82S
$$

ILZ005-006-012>014-019>023-300500-
NORTHEAST ILLINOIS

CITY           SKY/WX    TMP DP  RH WIND       PRES   REMARKS
CHICAGO-OHARE  PTCLDY    66  64  93 SW5       29.79F
CHICAGO-MIDWAY PTCLDY    69  65  86 S6        29.79F
AURORA         PTCLDY    64  61  90 S3        29.81S
LANSING*       CLEAR     64  62  93 CALM      29.81S FOG
JOLIET*        FOG       64  63  98 CALM      29.81S VSB 1
WAUKEGAN       PTCLDY    62  61  96 SE3       29.78F
DUPAGE AIRPORT PTCLDY    63  61  93 S3        29.79F
KANKAKEE*      PTCLDY    64  64  97 CALM      29.83R
WHEELING       CLEAR     65  62  90 CALM      29.81S
MORRIS*        CLEAR     65  64  96 S3        29.79F FOG
ROMEOVILLE*    CLEAR     64  64  99 SW3       29.81S FOG
NORTHERLY ISL    N/A     64  62  93 S3          N/A
$$

LMZ740>746-300500-
SOUTHERN LAKE MICHIGAN

STATION/POSITION SKY/WX   TEMP    WIND        PRES    VSBY  WAVE
                          AIR SEA DIR/SP/G                  HT/PER
                          (F)     (DEG/KT/KT) (MB)    (MI)  (FT/S)
HARRISON CRIB              64     170/  5/  6   N/A
BURNHAM HARBOR             64     150/  4       N/A
CALUMET HARBOR             66      CALM  /  2   N/A
BURNS HARBOR               68     170/  6/  9 1010.2R
MICHIGAN CITY              66     120/  8/ 11   N/A
MICHIGAN CITY 6N           65 65  170/  6/ 10   N/A           1
ST. JOSEPH                 64 64                N/A           1
$$

ILZ025>027-034>036-040-047-049-050-058-095>099-300500-
WEST-CENTRAL ILLINOIS

CITY           SKY/WX    TMP DP  RH WIND       PRES   REMARKS
QUINCY         CLEAR     68  65  90 W5        29.86S
GALESBURG*     MOCLDY    69  65  85 N9G24     29.86R
MACOMB*        CLEAR     65  64  94 W3        29.87R
JACKSONVILLE*  CLEAR     69  67  93 SW5       29.85S
PITTSFIELD*    CLEAR     69  66  90 CALM      29.87S
$$

ILZ028>032-037-038-041>044-048-051>054-059>061-300500-
CENTRAL ILLINOIS

CITY           SKY/WX    TMP DP  RH WIND       PRES   REMARKS
PONTIAC        PTCLDY    66  66  99 SE3       29.83S
BLOOMINGTON    PTCLDY    69  66  90 SW6       29.85R
DECATUR        CLEAR     68  64  87 SW7       29.85S
PEORIA         LGT RAIN  73  67  81 W5        29.83R
LACON*         MOCLDY    69  64  83 SW3       29.82R
LINCOLN*       PTCLDY    70  66  86 CALM      29.84S
SPRINGFIELD    CLEAR     71  67  87 SW5       29.85R
TAYLORVILLE    CLEAR     64  64 100 SW5       29.85S
$$

ILZ033-039-045-046-055>057-062-063-300500-
EAST-CENTRAL ILLINOIS

CITY           SKY/WX    TMP DP  RH WIND       PRES   REMARKS
CHAMPAIGN      CLEAR     67  64  90 SW5       29.85R
DANVILLE*      FOG       62  62 100 CALM      29.82S VSB 1/2
RANTOUL*       PTCLDY    67  66  96 CALM      29.84S
MATTOON        CLEAR     69  64  84 CALM      29.84F
PARIS*         CLEAR     67  65  93 SW8       29.85S
$$

ILZ079-100>102-300500-
SOUTHWEST ILLINOIS

CITY           SKY/WX    TMP DP  RH WIND       PRES   REMARKS
ALTON          CLEAR     69  69 100 CALM      29.88R
BELLEVILLE     CLEAR     72  71  96 CALM      29.86S
CAHOKIA*       TSTM      73  64  73 SE9G36    29.87S VSB 3/4
SPARTA*        PTCLDY    72  69  91 S3        29.89S
$$

ILZ064>066-069>071-074>076-080>082-084>086-088>090-092>094-300500-
SOUTH-CENTRAL ILLINOIS

CITY           SKY/WX    TMP DP  RH WIND       PRES   REMARKS
CARBONDALE     PTCLDY    71  68  90 CALM      29.88S
CAIRO*         CLEAR     73  67  81 CALM      29.89R
EFFINGHAM*     CLEAR     68  64  87 CALM      29.88S
MARION         CLOUDY    72  68  88 CALM      29.89S
MT. VERNON     CLOUDY    70  64  83 CALM      29.88S
CENTRALIA*     MOCLDY    70  67  89 CALM      29.87F
SALEM*         MOCLDY    71  68  89 CALM      29.88S
METROPOLIS*    CLEAR     71  71  99 CALM      29.90S
$$

ILZ067-068-072-073-078-083-087-091-300500-
SOUTHEAST ILLINOIS

CITY           SKY/WX    TMP DP  RH WIND       PRES   REMARKS
LAWRENCEVILLE  PTCLDY    69  65  86 SW6       29.86S
FLORA*         PTCLDY    71  64  78 W3        29.87F
FAIRFIELD*     CLOUDY    70  68  93 CALM      29.87R
HARRISBURG*    PTCLDY    69  68  97 CALM      29.90S
ROBINSON*      PTCLDY    67  65  90 W6        29.86S
CARMI*         MOCLDY    70  63  78 CALM      29.87S
$$

ABBREVIATIONS USED IN REMARKS
   TC - TEMPERATURE IN CELSIUS
  WCI - WIND CHILL INDEX
   HX - HEAT INDEX
  VSB - VISIBILITY
$$



USA.gov is the U.S. government's official web portal to all federal, state and local government web resources and services.